Location: Newark
(49.4642°N, 2.1122°E)
Time: 18:21:11
(UTC+00:00)

AO-85 - Pass Details

Date: 04 July 2020
Orbit: 521 x 762 km, 64.8° (Epoch: 12 March)

Event Time Altitude Azimuth Distance (km) Brightness Sun altitude
Rises 20:58:46 0° 311° (NW) 2,710 ? -7.7°
Reaches altitude 10° 21:01:13 10° 297° (WNW) 1,840 ? -8.0°
Maximum altitude 21:04:34 24° 243° (WSW) 1,197 ? -8.3°
Drops below altitude 10° 21:08:04 10° 188° (S) 1,930 ? -8.7°
Enters shadow 21:09:21 - 181° (S) 2,380 ? -8.8°
